Total_Precipitation_Accumulation
0.63 0.63 0.67 0.72 0.73 0.71 0.68 0.65 0.68 0.76 0.87 1.07 1.35 1.75 1.97 2.09 2.08 2.09 2.00 1.77 1.53 1.54 1.73 1.71 1.67 1.68 1.68 1.65 1.59 1.75 1.70 1.44 1.35 1.56 1.55 1.39 1.21 1.16 1.16 1.22 1.46 1.57 1.49
0.60 0.58 0.56 0.59 0.62 0.61 0.61 0.70 0.67 0.72 0.84 1.09 1.36 1.67 2.00 2.07 2.08 2.08 2.05 1.93 1.77 1.77 1.82 2.03 2.13 2.10 2.24 2.22 2.03 2.18 2.21 1.83 1.59 1.87 2.21 1.93 1.70 1.29 1.20 1.33 1.39 1.49 1.57
0.49 0.51 0.51 0.50 0.54 0.52 0.48 0.58 0.65 0.74 0.99 1.30 1.55 1.71 1.98 2.05 2.09 2.05 2.07 2.09 2.03 1.93 1.96 2.09 2.25 2.25 2.34 2.47 2.54 2.47 2.58 2.39 1.99 1.86 2.18 2.12 1.97 1.76 1.41 1.35 1.44 1.59 1.65
0.42 0.42 0.47 0.47 0.44 0.41 0.39 0.45 0.54 0.75 1.10 1.42 1.61 1.83 2.19 2.24 2.14 2.15 2.13 2.13 2.16 2.12 2.22 2.26 2.37 2.37 2.37 2.49 2.59 2.54 2.69 2.78 2.40 2.08 1.88 1.73 1.74 1.89 1.73 1.50 1.46 1.61 1.63
0.35 0.34 0.35 0.36 0.37 0.41 0.42 0.46 0.61 0.84 1.12 1.33 1.58 1.92 2.14 2.21 2.29 2.18 2.14 2.14 2.20 2.22 2.27 2.36 2.54 2.51 2.49 2.48 2.67 2.71 2.81 2.74 2.67 2.52 2.35 2.19 1.95 1.64 1.77 1.82 1.68 1.57 1.46
0.33 0.34 0.36 0.37 0.39 0.42 0.47 0.58 0.74 0.90 1.14 1.33 1.57 1.75 1.96 2.06 2.16 2.21 2.12 2.10 2.16 2.26 2.15 2.09 2.26 2.33 2.36 2.35 2.54 2.70 2.83 2.81 2.83 2.76 2.47 2.42 2.30 1.99 1.95 1.82 1.70 1.72 1.53
0.41 0.45 0.47 0.55 0.62 0.64 0.67 0.75 0.87 1.01 1.14 1.27 1.40 1.47 1.61 1.75 1.75 1.88 1.94 2.04 2.04 2.09 2.13 2.02 2.03 2.07 2.03 2.06 2.19 2.26 2.33 2.46 2.62 2.54 2.33 2.29 2.14 2.13 2.19 2.09 1.86 1.69 1.44
0.57 0.67 0.74 0.83 0.92 0.94 0.95 1.00 1.06 1.07 1.11 1.19 1.25 1.30 1.37 1.45 1.48 1.49 1.48 1.62 1.76 1.79 1.87 1.87 1.81 1.87 1.93 1.91 2.02 2.06 2.07 2.09 2.16 2.14 2.24 2.30 2.16 2.10 2.07 2.12 2.28 2.04 1.78
0.83 0.93 1.04 1.05 1.05 1.06 1.04 1.06 1.09 1.07 1.08 1.12 1.12 1.06 1.06 1.14 1.24 1.24 1.29 1.30 1.36 1.36 1.42 1.51 1.58 1.67 1.74 1.79 1.94 2.04 2.05 2.00 1.97 2.06 2.14 2.09 2.07 2.07 1.98 1.96 2.12 2.23 2.06
1.18 1.30 1.39 1.32 1.24 1.26 1.32 1.22 1.14 1.07 1.03 1.03 1.06 0.98 0.95 1.02 1.07 1.03 1.07 1.04 1.05 1.05 1.09 1.18 1.36 1.59 1.71 1.74 1.82 1.90 2.00 2.01 1.97 2.05 2.17 2.20 2.18 2.20 2.14 2.02 2.00 1.96 2.00
1.59 1.68 1.69 1.60 1.41 1.29 1.29 1.24 1.15 1.04 0.92 0.90 0.99 0.99 0.91 0.94 0.98 0.95 0.89 0.84 0.87 0.92 1.00 1.04 1.19 1.34 1.52 1.71 1.86 1.89 1.90 1.92 1.91 1.84 1.95 2.07 2.16 2.28 2.30 2.30 2.19 2.05 1.98
1.50 1.53 1.49 1.49 1.37 1.27 1.18 1.16 1.07 0.92 0.86 0.90 0.93 0.95 0.85 0.83 0.87 0.86 0.89 0.78 0.73 0.74 0.81 0.94 1.14 1.25 1.34 1.39 1.47 1.55 1.62 1.67 1.73 1.72 1.69 1.76 1.86 2.02 2.17 2.26 2.21 2.20 2.08
1.20 1.29 1.34 1.23 1.18 1.11 1.05 1.16 1.18 1.06 1.01 1.02 1.09 1.01 0.86 0.85 0.88 0.83 0.88 0.80 0.72 0.72 0.76 0.89 1.04 1.10 1.15 1.18 1.20 1.31 1.41 1.43 1.44 1.50 1.47 1.47 1.55 1.70 1.85 1.95 2.02 2.14 2.16
1.05 1.07 1.13 1.08 1.09 1.04 1.00 1.12 1.17 1.16 1.20 1.26 1.23 1.08 0.96 0.88 0.84 0.82 0.84 0.80 0.77 0.78 0.80 0.95 1.03 1.05 1.02 1.11 1.14 1.20 1.23 1.19 1.15 1.19 1.19 1.22 1.27 1.37 1.52 1.67 1.88 2.06 2.15
0.88 0.81 0.78 0.80 0.86 0.85 0.80 0.86 0.96 1.04 1.15 1.20 1.12 1.03 0.93 0.81 0.75 0.78 0.75 0.78 0.83 0.82 0.84 0.88 0.99 1.02 1.00 1.05 1.12 1.10 1.03 1.03 1.02 0.96 0.86 0.88 0.96 1.00 1.10 1.14 1.43 1.68 1.90
0.64 0.61 0.56 0.55 0.59 0.52 0.55 0.59 0.70 0.86 1.04 1.11 0.99 0.87 0.80 0.79 0.72 0.68 0.65 0.65 0.68 0.70 0.72 0.77 0.93 1.03 0.91 1.02 1.01 0.93 0.86 0.83 0.88 0.85 0.77 0.74 0.79 0.73 0.70 0.74 0.96 1.25 1.44
0.53 0.55 0.53 0.47 0.50 0.46 0.47 0.56 0.63 0.76 0.86 0.88 0.81 0.71 0.66 0.64 0.58 0.55 0.56 0.59 0.61 0.62 0.65 0.67 0.82 0.91 0.97 0.91 0.76 0.81 0.80 0.81 0.85 0.87 0.89 0.80 0.75 0.85 0.75 0.69 0.76 0.84 0.95
0.43 0.49 0.51 0.49 0.50 0.54 0.56 0.65 0.71 0.71 0.74 0.78 0.76 0.68 0.61 0.56 0.52 0.48 0.50 0.60 0.62 0.59 0.61 0.63 0.65 0.73 0.87 0.81 0.66 0.70 0.69 0.80 0.89 0.92 1.00 1.00 0.94 0.92 0.99 0.92 0.93 0.90 0.83
0.25 0.27 0.32 0.34 0.39 0.43 0.48 0.49 0.50 0.52 0.54 0.57 0.62 0.56 0.47 0.50 0.54 0.51 0.55 0.59 0.59 0.62 0.61 0.63 0.64 0.69 0.74 0.72 0.65 0.67 0.72 0.85 0.88 0.84 0.96 1.00 0.95 1.01 1.06 1.17 1.23 1.15 1.00
0.16 0.15 0.15 0.17 0.20 0.25 0.36 0.41 0.39 0.34 0.33 0.36 0.41 0.41 0.38 0.41 0.49 0.58 0.64 0.60 0.56 0.61 0.62 0.59 0.56 0.59 0.60 0.67 0.59 0.69 0.79 0.84 0.85 0.86 0.92 1.07 1.00 0.98 0.95 1.03 1.17 1.16 1.02
0.14 0.15 0.14 0.14 0.18 0.22 0.25 0.29 0.35 0.32 0.29 0.30 0.32 0.32 0.32 0.35 0.44 0.50 0.48 0.48 0.50 0.53 0.54 0.56 0.54 0.53 0.60 0.72 0.72 0.78 0.79 0.83 0.89 0.97 1.02 1.00 1.09 0.93 0.89 0.89 0.91 1.00 0.99
0.11 0.12 0.13 0.15 0.20 0.20 0.18 0.21 0.24 0.25 0.27 0.26 0.28 0.27 0.25 0.25 0.28 0.35 0.39 0.42 0.43 0.45 0.44 0.45 0.44 0.47 0.58 0.66 0.68 0.71 0.75 0.83 0.82 0.87 0.88 0.85 0.94 0.80 0.71 0.66 0.72 0.79 0.84
0.09 0.11 0.15 0.19 0.21 0.19 0.17 0.18 0.20 0.24 0.28 0.27 0.26 0.25 0.24 0.24 0.26 0.30 0.34 0.37 0.41 0.43 0.41 0.38 0.39 0.43 0.47 0.55 0.58 0.58 0.57 0.60 0.62 0.59 0.70 0.72 0.70 0.65 0.58 0.62 0.67 0.68 0.70
0.09 0.12 0.16 0.18 0.19 0.18 0.20 0.21 0.21 0.21 0.23 0.23 0.23 0.23 0.24 0.25 0.25 0.28 0.33 0.39 0.39 0.36 0.35 0.37 0.39 0.44 0.47 0.47 0.47 0.49 0.49 0.48 0.52 0.51 0.54 0.56 0.54 0.54 0.56 0.59 0.63 0.68 0.72
0.11 0.12 0.14 0.17 0.17 0.19 0.21 0.23 0.22 0.20 0.20 0.20 0.19 0.20 0.21 0.24 0.24 0.22 0.23 0.30 0.33 0.31 0.33 0.35 0.39 0.43 0.46 0.44 0.41 0.40 0.45 0.50 0.54 0.60 0.56 0.53 0.54 0.55 0.62 0.65 0.64 0.66 0.70
0.12 0.13 0.13 0.15 0.16 0.18 0.22 0.24 0.27 0.25 0.22 0.21 0.20 0.21 0.21 0.22 0.22 0.22 0.22 0.25 0.25 0.27 0.28 0.26 0.27 0.26 0.26 0.29 0.29 0.30 0.34 0.40 0.46 0.60 0.67 0.69 0.75 0.78 0.78 0.75 0.66 0.60 0.60